Simultaneous Nadir Overpasses (SNOs) Predictions

Prediction of SNOs between METOP-B and NPP Satellite Orbit:

Table of predicted SNOs for the next 14.0 days since TLE Epoch: 7/19/2014
Index Date (METOP-B) Time (METOP-B) Lat,Lon (METOP-B) SZA (METOP-B ) Date (NPP) Time (NPP) Lat,Lon (NPP) SZA (NPP ) Distance(km) Time Diff (sec)
1 07/25/2014 07:58:27 73.79, 54.71 54.21 07/25/2014 07:57:20 73.78, 51.82 54.36 89.77 67
2 07/25/2014 08:49:11 -73.69,-138.19 125.87 07/25/2014 08:48:03 -73.73,-140.73 125.70 79.24 68
3 07/25/2014 09:39:54 73.47, 28.62 53.94 07/25/2014 09:38:43 73.48, 27.15 54.05 46.52 71
4 07/25/2014 10:30:37 -73.42,-164.16 126.10 07/25/2014 10:29:25 -73.38,-165.29 126.07 36.38 72
5 07/25/2014 11:21:21 73.19, 2.67 53.71 07/25/2014 11:20:07 73.18, 2.46 53.73 6.82 74
6 07/25/2014 12:12:04 -73.15, 169.90 126.33 07/25/2014 12:10:50 -73.13, 169.90 126.33 2.10 74
7 07/25/2014 13:02:44 73.12, -22.83 53.66 07/25/2014 13:01:36 73.13, -22.80 53.69 1.89 68
8 07/25/2014 13:53:26 -73.12, 144.50 126.33 07/25/2014 13:52:20 -73.13, 144.52 126.31 0.79 66
9 07/25/2014 14:44:05 73.14, -48.12 53.70 07/25/2014 14:43:06 73.13, -48.17 53.70 2.29 59
10 07/25/2014 15:34:48 -73.10, 119.11 126.34 07/25/2014 15:33:50 -73.13, 119.15 126.30 3.33 58
11 07/25/2014 16:25:27 73.12, -73.51 53.69 07/25/2014 16:24:36 73.13, -73.54 53.71 1.65 51
12 07/25/2014 17:16:09 -73.12, 93.83 126.30 07/25/2014 17:15:20 -73.12, 93.78 126.29 1.56 49
13 07/25/2014 18:06:49 73.09, -98.90 53.68 07/25/2014 18:06:05 73.08, -98.81 53.67 3.58 44
14 07/25/2014 18:57:31 -73.10, 68.44 126.31 07/25/2014 18:56:50 -73.12, 68.41 126.27 2.81 41
15 07/25/2014 19:48:10 73.12,-124.19 53.72 07/25/2014 19:47:36 73.13,-124.29 53.74 3.39 34
16 07/25/2014 20:38:53 -73.07, 43.04 126.31 07/25/2014 20:38:19 -73.07, 43.15 126.31 3.32 34
17 07/25/2014 21:29:32 73.09,-149.58 53.72 07/25/2014 21:29:05 73.07,-149.55 53.70 2.31 27
18 07/25/2014 22:20:14 -73.10, 17.76 126.27 07/25/2014 22:19:49 -73.07, 17.77 126.30 3.34 25
19 07/25/2014 23:10:54 73.07,-174.97 53.71 07/25/2014 23:10:35 73.07,-174.92 53.72 1.71 19
20 07/26/2014 00:01:36 -73.08, -7.63 126.28 07/26/2014 00:01:19 -73.07, -7.60 126.29 1.32 17
21 07/26/2014 00:52:15 73.09, 159.74 53.75 07/26/2014 00:52:05 73.07, 159.70 53.73 2.74 10
22 07/26/2014 01:42:58 -73.05, -33.02 126.29 07/26/2014 01:42:49 -73.07, -32.97 126.27 2.57 9
23 07/26/2014 02:33:37 73.07, 134.35 53.74 07/26/2014 02:33:35 73.07, 134.33 53.74 0.57 2
24 07/26/2014 03:24:19 -73.08, -58.31 126.25 07/26/2014 03:24:19 -73.07, -58.34 126.26 1.57 0
25 07/26/2014 04:14:59 73.04, 108.96 53.73 07/26/2014 04:15:05 73.07, 108.96 53.76 2.81 6
26 07/26/2014 05:05:41 -73.05, -83.70 126.25 07/26/2014 05:05:49 -73.07, -83.71 126.24 1.52 8
27 07/26/2014 05:56:20 73.07, 83.67 53.77 07/26/2014 05:56:35 73.07, 83.59 53.77 2.73 15
28 07/26/2014 06:47:02 -73.08,-108.99 126.22 07/26/2014 06:47:19 -73.06,-109.09 126.23 3.62 17
29 07/26/2014 07:37:42 73.05, 58.28 53.77 07/26/2014 07:38:05 73.07, 58.22 53.79 3.20 23
30 07/26/2014 08:28:24 -73.05,-134.38 126.22 07/26/2014 08:28:49 -73.06,-134.46 126.21 2.83 25
31 07/26/2014 09:19:04 73.02, 32.89 53.76 07/26/2014 09:19:34 73.02, 32.95 53.75 2.22 30
32 07/26/2014 10:09:46 -73.03,-159.77 126.23 07/26/2014 10:10:18 -73.01,-159.72 126.25 2.47 32
33 07/26/2014 11:00:26 73.00, 7.49 53.75 07/26/2014 11:01:04 73.02, 7.58 53.76 3.55 38
34 07/26/2014 11:51:08 -73.01, 174.84 126.23 07/26/2014 11:51:48 -73.01, 174.91 126.24 2.31 40
35 07/26/2014 12:41:47 73.02, -17.79 53.79 07/26/2014 12:42:34 73.01, -17.79 53.77 0.85 47
36 07/26/2014 13:32:29 -73.03, 149.55 126.20 07/26/2014 13:33:18 -73.01, 149.53 126.23 2.42 49
37 07/26/2014 14:23:09 73.00, -43.18 53.79 07/26/2014 14:24:04 73.01, -43.16 53.79 1.90 55
38 07/26/2014 15:13:51 -73.01, 124.16 126.20 07/26/2014 15:14:48 -73.01, 124.16 126.21 0.27 57
39 07/26/2014 16:04:30 73.02, -68.47 53.82 07/26/2014 16:05:34 73.01, -68.53 53.80 2.51 64
40 07/26/2014 16:55:13 -72.98, 98.77 126.21 07/26/2014 16:56:18 -73.01, 98.79 126.20 2.94 65
41 07/26/2014 17:45:52 73.00, -93.86 53.82 07/26/2014 17:47:04 73.01, -93.91 53.82 2.10 72
42 07/26/2014 18:36:34
